FW2617 Weather Reports


time (UTC)temp
C
wind
direction
speed
KPH
gust
KPH
rain 1hr
cm
rain 24hr
cm
rain mn
cm
humidity
%
barometer
mb
20260508122704 13 0 0.0 0.0 0.00 0.00 0.00 89 1012.5
20260508121803 13 0 0.0 0.0 0.00 0.00 0.00 90 1012.4
20260508120903 13 0 0.0 0.0 0.00 0.00 0.00 90 1012.4
20260508120004 13 0 0.0 0.0 0.00 0.00 0.00 89 1012.3
20260508115403 13 0 0.0 0.0 0.00 0.00 0.00 89 1012.5
20260508114503 13 0 0.0 0.0 0.00 0.00 0.00 89 1012.5
20260508113603 13 0 0.0 0.0 0.00 0.00 0.00 89 1012.7
20260508112703 13 0 0.0 0.0 0.00 0.00 0.00 89 1012.5
20260508111824 13 0 0.0 0.0 0.00 0.00 0.00 89 1012.3
20260508110903 14 0 0.0 0.0 0.00 0.00 0.00 90 1012.4
20260508110003 14 0 0.0 0.0 0.00 0.00 0.00 89 1012.5
20260508105403 14 0 0.0 0.0 0.00 0.00 0.00 89 1012.8
20260508104504 14 144 0.0 3.2 0.00 0.00 0.00 89 1012.6
20260508103603 14 144 0.0 3.2 0.00 0.00 0.00 89 1012.6
20260508102703 14 144 0.0 4.8 0.00 0.00 0.00 88 1012.3
20260508101804 14 0 0.0 0.0 0.00 0.00 0.00 87 1012.5
20260508100903 14 144 0.0 1.6 0.00 0.00 0.00 87 1012.8
20260508100004 15 144 1.6 3.2 0.00 0.00 0.00 87 1012.3
20260508095403 15 144 1.6 3.2 0.00 0.00 0.00 87 1012.3
20260508094503 15 144 0.0 1.6 0.00 0.00 0.00 88 1012.1
20260508093603 15 144 0.0 1.6 0.00 0.00 0.00 88 1012.0
20260508092703 15 152 1.6 6.4 0.00 0.00 0.00 88 1012.1
20260508091803 15 0 0.0 0.0 0.00 0.00 0.00 87 1012.3
20260508090903 15 0 0.0 0.0 0.00 0.00 0.00 87 1012.3
20260508090003 15 0 0.0 0.0 0.00 0.00 0.00 87 1012.3
20260508085403 15 0 0.0 0.0 0.00 0.00 0.00 87 1012.2
20260508084503 15 0 0.0 0.0 0.00 0.00 0.00 87 1012.2
20260508083603 15 0 0.0 0.0 0.00 0.00 0.00 87 1012.4
20260508082703 15 0 0.0 0.0 0.00 0.00 0.00 87 1012.5
20260508081804 15 0 0.0 0.0 0.00 0.00 0.00 86 1012.6
20260508080903 15 0 0.0 0.0 0.00 0.00 0.00 86 1012.8
20260508080004 15 0 0.0 0.0 0.00 0.00 0.00 86 1013.1
20260508075404 15 0 0.0 0.0 0.00 0.00 0.00 86 1013.5
20260508074524 15 0 0.0 0.0 0.00 0.00 0.00 86 1013.6
20260508073624 15 0 0.0 0.0 0.00 0.00 0.00 85 1013.6
20260508072703 15 0 0.0 0.0 0.00 0.00 0.00 84 1013.5
20260508071803 15 0 0.0 0.0 0.00 0.00 0.00 84 1013.3
20260508070903 15 0 0.0 0.0 0.00 0.00 0.00 83 1013.2
20260508070004 15 0 0.0 0.0 0.00 0.00 0.00 83 1012.9
20260508065403 15 0 0.0 0.0 0.00 0.00 0.00 82 1013.1
20260508064524 15 0 0.0 0.0 0.00 0.00 0.00 82 1013.1
20260508063624 15 0 0.0 0.0 0.00 0.00 0.00 82 1013.2
20260508062704 15 0 0.0 0.0 0.00 0.00 0.00 81 1013.5
20260508061803 15 0 0.0 0.0 0.00 0.00 0.00 81 1013.6
20260508060903 15 0 0.0 0.0 0.00 0.00 0.00 81 1013.6
20260508060024 16 0 0.0 0.0 0.00 0.00 0.00 81 1013.8
20260508055404 16 0 0.0 0.0 0.00 0.00 0.00 81 1013.8
20260508054503 16 0 0.0 0.0 0.00 0.00 0.00 80 1013.8
20260508053624 16 0 0.0 0.0 0.00 0.00 0.00 80 1013.8
20260508052703 16 0 0.0 0.0 0.00 0.00 0.00 80 1014.0
20260508051803 16 0 0.0 0.0 0.00 0.00 0.00 79 1014.1
20260508050903 16 0 0.0 0.0 0.00 0.00 0.00 79 1014.0
20260508050025 16 0 0.0 0.0 0.00 0.00 0.00 79 1014.0
20260508045403 16 0 0.0 0.0 0.00 0.00 0.00 79 1014.1
20260508044503 16 0 0.0 0.0 0.00 0.00 0.00 79 1013.9
20260508043624 16 0 0.0 0.0 0.00 0.00 0.00 80 1013.7
20260508042704 16 0 0.0 0.0 0.00 0.00 0.00 79 1013.9
20260508041803 16 0 0.0 0.0 0.00 0.00 0.00 77 1013.8
20260508040924 16 0 0.0 0.0 0.00 0.00 0.00 77 1013.8
20260508040003 17 0 0.0 0.0 0.00 0.00 0.00 77 1013.9
20260508035403 17 0 0.0 0.0 0.00 0.00 0.00 76 1013.9
20260508034503 17 0 0.0 0.0 0.00 0.00 0.00 75 1013.8
20260508033603 17 175 0.0 1.6 0.00 0.00 0.00 75 1013.6
20260508032724 17 175 0.0 3.2 0.00 0.00 0.00 74 1013.7
20260508031824 17 174 0.0 1.6 0.00 0.00 0.00 72 1013.3
20260508030904 17 175 0.0 3.2 0.00 0.00 0.00 72 1013.1
20260508030004 17 174 0.0 1.6 0.00 0.00 0.00 73 1012.8
20260508025403 17 174 0.0 1.6 0.00 0.00 0.00 71 1012.7
20260508024503 17 0 0.0 0.0 0.00 0.00 0.00 71 1012.9
20260508023603 17 0 0.0 0.0 0.00 0.00 0.00 70 1012.7
20260508022703 17 0 0.0 0.0 0.00 0.00 0.00 71 1012.7
20260508021803 18 0 0.0 0.0 0.00 0.00 0.00 69 1012.8
20260508020903 18 174 0.0 1.6 0.00 0.00 0.00 69 1012.6
20260508020004 18 175 0.0 3.2 0.00 0.00 0.00 69 1013.0
20260508015425 18 175 0.0 3.2 0.00 0.00 0.00 69 1012.8
20260508014524 18 175 1.6 3.2 0.00 0.00 0.00 69 1013.1
20260508013603 18 175 0.0 1.6 0.00 0.00 0.00 68 1012.8
20260508012703 18 174 0.0 1.6 0.00 0.00 0.00 67 1012.9
20260508011803 18 174 0.0 1.6 0.00 0.00 0.00 66 1012.9
20260508010903 18 174 0.0 3.2 0.00 0.00 0.00 65 1012.8
20260508010004 18 174 0.0 3.2 0.00 0.00 0.00 65 1012.7
20260508005405 18 174 1.6 4.8 0.00 0.00 0.00 65 1012.8
20260508004504 19 174 1.6 4.8 0.00 0.00 0.00 65 1013.0
20260508003625 19 174 1.6 3.2 0.00 0.00 0.00 65 1012.9
20260508002704 19 168 1.6 4.8 0.00 0.00 0.00 64 1013.0
20260508001825 19 167 1.6 4.8 0.00 0.00 0.00 62 1013.0
20260508000905 19 166 1.6 6.4 0.00 0.00 0.00 62 1013.1
20260508000005 19 168 1.6 6.4 0.00 0.00 0.00 63 1013.2
20260507235405 19 166 1.6 6.4 0.00 0.00 0.00 63 1013.3
20260507234505 20 164 3.2 8.0 0.00 0.00 0.00 61 1013.4
20260507233605 20 160 3.2 8.0 0.00 0.00 0.00 59 1013.5
20260507232704 20 160 1.6 3.2 0.00 0.00 0.00 60 1013.2
20260507231804 20 160 1.6 6.4 0.00 0.00 0.00 61 1013.1
20260507230904 20 172 1.6 3.2 0.00 0.00 0.00 61 1013.2
20260507230005 20 156 1.6 6.4 0.00 0.00 0.00 60 1013.5
20260507225405 20 149 1.6 4.8 0.00 0.00 0.00 59 1013.4
20260507224505 20 165 1.6 6.4 0.00 0.00 0.00 58 1013.6
20260507223626 20 168 1.6 6.4 0.00 0.00 0.00 58 1013.4
20260507222704 20 158 1.6 6.4 0.00 0.00 0.00 58 1013.7
20260507221804 20 172 3.2 6.4 0.00 0.00 0.00 58 1013.6
20260507220905 20 167 3.2 9.7 0.00 0.00 0.00 58 1013.9
20260507220026 20 164 3.2 9.7 0.00 0.00 0.00 58 1013.9
20260507215405 20 159 3.2 8.0 0.00 0.00 0.00 58 1013.7
20260507214525 21 164 3.2 9.7 0.00 0.00 0.00 58 1013.7
20260507213625 21 153 3.2 9.7 0.00 0.00 0.00 57 1014.1
20260507212704 21 106 1.6 6.4 0.00 0.00 0.00 58 1013.9
20260507211804 21 119 1.6 3.2 0.00 0.00 0.00 58 1014.1
20260507210904 21 132 1.6 8.0 0.00 0.00 0.00 56 1014.4
20260507210005 21 154 1.6 8.0 0.00 0.00 0.00 56 1014.7
20260507205404 21 145 0.0 4.8 0.00 0.00 0.00 57 1014.7
20260507204505 21 61 0.0 4.8 0.00 0.00 0.00 56 1014.9
20260507203604 21 63 1.6 8.0 0.00 0.00 0.00 57 1014.7
20260507202725 21 81 1.6 3.2 0.00 0.00 0.00 56 1014.8
20260507201805 21 54 1.6 6.4 0.00 0.00 0.00 58 1014.6
20260507200905 21 57 3.2 12.9 0.00 0.00 0.00 59 1014.6
20260507200004 21 61 4.8 14.5 0.00 0.00 0.00 57 1014.7
20260507195404 21 53 3.2 11.3 0.00 0.00 0.00 58 1014.7
20260507194504 21 65 3.2 9.7 0.00 0.00 0.00 58 1014.8
20260507193604 21 58 4.8 12.9 0.00 0.00 0.00 58 1014.9
20260507192704 21 76 1.6 12.9 0.00 0.00 0.00 59 1015.2
20260507191826 21 56 3.2 9.7 0.00 0.00 0.00 59 1015.4
20260507190905 21 42 3.2 12.9 0.00 0.00 0.00 58 1015.8
20260507190005 21 54 3.2 12.9 0.00 0.00 0.00 60 1016.0
20260507185405 21 69 1.6 12.9 0.00 0.00 0.00 60 1016.2
20260507184504 21 339 1.6 4.8 0.00 0.00 0.00 60 1016.3
20260507183605 21 37 3.2 9.7 0.00 0.00 0.00 60 1016.2
20260507182704 20 34 8.0 19.3 0.00 0.00 0.00 61 1016.1
20260507181804 20 38 8.0 17.7 0.00 0.00 0.00 59 1015.9
20260507180904 20 55 8.0 17.7 0.00 0.00 0.00 60 1015.8
20260507180004 20 33 9.7 22.5 0.00 0.00 0.00 59 1016.1
20260507175425 20 23 9.7 17.7 0.00 0.00 0.00 61 1016.1
20260507174504 20 25 8.0 19.3 0.00 0.00 0.00 61 1016.1
20260507173625 20 11 9.7 17.7 0.00 0.00 0.00 62 1016.1
20260507172704 21 15 9.7 20.9 0.00 0.00 0.00 63 1016.5
20260507171804 20 29 11.3 20.9 0.00 0.00 0.00 65 1016.3
20260507170904 20 20 11.3 22.5 0.00 0.00 0.00 64 1016.6
20260507170005 20 23 8.0 16.1 0.00 0.00 0.00 65 1016.7
20260507165404 20 24 8.0 19.3 0.00 0.00 0.00 66 1016.8
20260507164504 20 41 8.0 17.7 0.00 0.00 0.00 66 1017.3
20260507163604 19 15 6.4 20.9 0.00 0.00 0.00 69 1017.4
20260507162704 18 30 6.4 14.5 0.00 0.00 0.00 70 1017.5
20260507161826 18 29 6.4 16.1 0.00 0.00 0.00 71 1017.8
20260507160904 18 17 6.4 14.5 0.00 0.00 0.00 73 1017.7
20260507160004 18 25 6.4 17.7 0.00 0.00 0.00 74 1017.6
20260507155404 17 38 6.4 14.5 0.00 0.00 0.00 75 1017.6
20260507154505 17 46 6.4 14.5 0.00 0.00 0.00 76 1017.6
20260507153604 16 30 6.4 16.1 0.00 0.00 0.00 77 1017.6
20260507152705 16 38 8.0 17.7 0.00 0.00 0.00 78 1017.6
20260507151804 16 25 8.0 17.7 0.00 0.00 0.00 80 1017.8
20260507150904 16 33 6.4 17.7 0.00 0.03 0.00 81 1018.0
20260507150005 15 27 6.4 14.5 0.00 0.03 0.00 82 1018.0
20260507145404 15 24 6.4 17.7 0.00 0.03 0.00 83 1018.0
20260507144525 15 13 6.4 16.1 0.00 0.03 0.00 84 1018.2
20260507143604 15 34 4.8 14.5 0.00 0.03 0.00 85 1018.1
20260507142704 14 27 6.4 12.9 0.00 0.03 0.00 86 1018.2
20260507141804 14 23 4.8 12.9 0.00 0.03 0.00 88 1018.4
20260507140904 13 359 6.4 11.3 0.00 0.03 0.00 89 1018.5
20260507140005 13 1 6.4 12.9 0.00 0.03 0.00 90 1018.2
20260507135404 13 360 6.4 12.9 0.00 0.03 0.00 90 1018.2
20260507134505 13 4 3.2 8.0 0.00 0.03 0.00 91 1018.2
20260507133604 13 8 3.2 8.0 0.00 0.03 0.00 91 1018.3
20260507132705 12 12 3.2 6.4 0.00 0.03 0.00 91 1018.4
20260507131804 12 11 3.2 6.4 0.00 0.03 0.00 91 1018.5
20260507130904 12 357 3.2 9.7 0.00 0.03 0.00 91 1018.5
20260507130004 12 350 3.2 6.4 0.00 0.03 0.00 91 1018.4
20260507125404 11 348 1.6 6.4 0.00 0.03 0.00 91 1018.4
20260507124525 11 348 0.0 4.8 0.00 0.03 0.00 90 1018.4
20260507123604 11 348 1.6 3.2 0.00 0.03 0.00 90 1018.4